World > North America > United States > New York   Town of Mohawk, NY

Mohawk, New York Regional Weather

Lat: 43.01N, Lon: 75.01W
Wx Zone: NYZ038Web Search
Mohawk Weather Warning NWS WEATHER ALERT FOR THE MOHAWK, NY AREA - Issued: 415 AM EST Fri Jan 15 2021 Mohawk Weather Warning  

Helpful Tip: Abbreviated, 7 Day, 14 Day Forecasts. There is a weather forecast for every taste.

Feedback
Mohawk Weather Map
UTC Time: 1/15/2021, 14:10
Your Time:

Mohawk, NY Regional Weather

Expires:202101151400;;952903
ASUS41 KGYX 151310
RWRGYX
WEATHER ROUNDUP FOR MAINE AND NEW HAMPSHIRE
NATIONAL WEATHER SERVICE GRAY ME
800 AM EST FRI JAN 15 2021


MAZ007-012-024-CTZ003-RIZ002-NYZ038-NYZ072-151400-
SOUTHERN NEW ENGLAND AND NY
  
CITY           SKY/WX    TMP DP  RH WIND       PRES   REMARKS
BOSTON         PTCLDY    33  29  85 N6        30.06R                  
WORCESTER      CLOUDY    32  29  88 NE5       30.00R FOG              
NANTUCKET      CLOUDY    39  36  89 N3        30.01R                  
PROVIDENCE     CLOUDY    37  34  89 NE6       30.04R FOG              
HARTFORD       CLOUDY    33  32  96 N5        30.04R FOG              
ALBANY         PTCLDY    19  19 100 CALM      30.01R FOG              
NEW YORK CITY  CLOUDY    39  34  82 E9        29.99R FOG              
$$


SKY/WX - Weather  TMP - Temperature  DP - Dew Point  RH - Relative Humidity
WIND - Wind Direction/Speed PRES - Barometric Pressure VSB - Visibility
WCI - Wind Chill Index E13G22 Wind - East Wind 13 mph/Gusts of 22 mph